Regional Weather Roundup
Issued by NWS

Home | Current Version | Previous Version | Text Only | Print | Product List | Glossary On
Versions: 1 2 3 4 5 6 7 8 9 10 11 12 13 14 15 16 17 18 19 20 21 22 23 24 25 26 27 28 29 30 31 32 33 34 35 36 37 38 39 40 41 42 43 44 45 46 47 48 49 50
000
ASUS43 KOAX 161310
RWRNE

WEATHER ROUNDUP FOR NEBRASKA
NATIONAL WEATHER SERVICE OMAHA NE
700 AM CST MON JAN 16 2017

NOTES: SATELLITE DATA IS BEING USED TO AUGMENT CLOUD COVER ABOVE
       12000 FEET.
       "FAIR" INDICATES FEW OR NO CLOUDS BELOW 12,000 FEET WITH NO
       SIGNIFICANT WEATHER AND/OR OBSTRUCTIONS TO VISIBILITY.

  * THESE STATIONS DO NOT REPORT WEATHER SUCH AS RAIN...SNOW OR FOG.

NEZ001>004-019>022-054>056-161400-
NEBRASKA PANHANDLE

CITY           SKY/WX    TMP DP  RH WIND       PRES   REMARKS
SCOTTSBLUFF    CLOUDY    34  24  67 NW9       30.03R WCI  27
ALLIANCE       CLOUDY    30  24  78 N9        30.00R WCI  22
CHADRON        CLOUDY    26  20  77 NW12      30.08R WCI  16
KIMBALL        CLOUDY    32  28  84 N15       29.98R WCI  22
SIDNEY         LGT SNOW  30  27  88 N17       29.97R FOG     WCI  18
$$

NEZ057>060-069>072-079>082-161400-
SOUTHWEST NEBRASKA

CITY           SKY/WX    TMP DP  RH WIND       PRES   REMARKS
NORTH PLATTE   MIX PCPN  32  30  92 N7        29.95S FOG     WCI  26
IMPERIAL       FRZ RAIN  32  30  92 N15       29.91F WCI  22
LEXINGTON      MIX PCPN  32  30  94 N8        29.92F WCI  25
MCCOOK         MIX PCPN  32  32 100 N15       29.91S FOG     WCI  22
OGALLALA       MIX PCPN  34  33  96 N6        29.96R WCI  29
$$

NEZ005>010-023>029-035>040-094-161400-
NORTH CENTRAL NEBRASKA

CITY           SKY/WX    TMP DP  RH WIND       PRES   REMARKS
VALENTINE      CLOUDY    29  23  78 NW5       30.04R WCI  24
AINSWORTH      FLURRIES  30  29  94 N6        30.02R WCI  24
BROKEN BOW     FRZ RAIN  32  31  96 N9        29.95S FOG     WCI  24
O`NEILL        CLOUDY    32  32 100 N7        30.01F FOG     WCI  26
ORD            CLOUDY    32  29  88 N8        29.97S FOG     WCI  25
THEDFORD       MIX PCPN  32  32  99 N6        29.98F WCI  27
$$

NEZ041-046>049-061>064-073>077-083>087-161400-
SOUTH CENTRAL NEBRASKA

CITY           SKY/WX    TMP DP  RH WIND       PRES   REMARKS
GRAND ISLAND   FRZ RAIN  31  31 100 NE15      29.95F FOG     WCI  20
AURORA         MIX PCPN  31  31  99 NE13      29.94F WCI  22
HASTINGS       FRZ RAIN  32  30  92 NE17      29.92F FOG     WCI  21
HEBRON         LGT SNOW  32  31  98 NE8       29.90F WCI  25
HOLDREGE       LGT SNOW  32  31  96 N10       29.90F WCI  23
KEARNEY *      CLOUDY    30  28  93 N14       29.93S WCI  20
YORK           LGT RAIN  32  32 100 CALM      29.95F
$$

NEZ011>018-030>034-042>045-161400-
NORTHEAST NEBRASKA

CITY           SKY/WX    TMP DP  RH WIND       PRES   REMARKS
NORFOLK        CLOUDY    31  29  92 NE6       30.00F WCI  25
ALBION         MIX PCPN  32  30  93 NE8       29.99S WCI  25
BLAIR          CLOUDY    32  32 100 NE9       29.99F FOG     WCI  24
FREMONT        CLOUDY    32  32 100 NE6       30.01F WCI  26
TEKAMAH        CLOUDY    33  31  92 N8        30.03F WCI  26
WAYNE          CLOUDY    32  31  98 NE8       30.03F FOG     WCI  24
$$

NEZ050>053-065>068-078-088>093-161400-
SOUTHEAST NEBRASKA

CITY           SKY/WX    TMP DP  RH WIND       PRES   REMARKS
LINCOLN        FRZ RAIN  32  31  96 NE12      29.98F FOG     WCI  23
OMAHA EPPLEY   CLOUDY    33  29  85 NE14      30.01F FOG     WCI  23
BEATRICE       LGT RAIN  33  32  98 NE9       29.92F WCI  25
FALLS CITY     RAIN      33  32  96 NE10      29.94F FOG     WCI  25
NEBRASKA CITY  MIX PCPN  32  32 100 NE8       29.96F WCI  25
PLATTSMOUTH    MIX PCPN  32  31  94 NE10      29.97F WCI  24
$$

NEZ044-045-051>053-067-161400-
OMAHA AREA

CITY           SKY/WX    TMP DP  RH WIND       PRES   REMARKS
OMAHA EPPLEY   CLOUDY    33  29  85 NE14      30.01F FOG     WCI  23
BLAIR          CLOUDY    32  32 100 NE9       29.99F FOG     WCI  24
FREMONT        CLOUDY    32  32 100 NE6       30.01F WCI  26
MILLARD        DRIZZLE   34  33  94 NE5       30.00F WCI  30
OFFUTT AFB     DRIZZLE   33  33 100 NE9       29.99F WCI  25
PLATTSMOUTH    MIX PCPN  32  31  94 NE10      29.97F WCI  24
WAHOO          CLOUDY    32  31  98 NE13      29.99F FOG     WCI  22
$$




USA.gov is the U.S. government's official web portal to all federal, state and local government web resources and services.